| time (UTC) | temp C | wind direction | speed KPH | gust KPH | rain 1hr cm | rain 24hr cm | rain mn cm | humidity % | barometer mb |
| 20260506045007 | 23 | 128 | 1.6 | 9.7 | 0.00 | 0.00 | 0.00 | 88 | 1008.2 |
| 20260506044532 | 23 | 122 | 3.2 | 12.9 | 0.00 | 0.00 | 0.00 | 88 | 1008.3 |
| 20260506044008 | 23 | 107 | 1.6 | 12.9 | 0.00 | 0.00 | 0.00 | 88 | 1008.5 |
| 20260506043510 | 23 | 215 | 3.2 | 11.3 | 0.00 | 0.00 | 0.00 | 88 | 1008.5 |
| 20260506043024 | 23 | 174 | 4.8 | 9.7 | 0.00 | 0.00 | 0.00 | 88 | 1008.6 |
| 20260506042510 | 23 | 156 | 1.6 | 8.0 | 0.00 | 0.00 | 0.00 | 87 | 1008.5 |
| 20260506042008 | 23 | 154 | 3.2 | 9.7 | 0.00 | 0.00 | 0.00 | 87 | 1008.2 |
| 20260506041538 | 23 | 105 | 1.6 | 9.7 | 0.00 | 0.00 | 0.00 | 87 | 1008.2 |
| 20260506041012 | 23 | 166 | 3.2 | 9.7 | 0.00 | 0.00 | 0.00 | 87 | 1008.2 |
| 20260506040507 | 23 | 165 | 1.6 | 9.7 | 0.00 | 0.00 | 0.00 | 87 | 1008.2 |
| 20260506040013 | 23 | 120 | 3.2 | 9.7 | 0.00 | 0.00 | 0.00 | 87 | 1008.1 |
| 20260506035504 | 23 | 103 | 1.6 | 14.5 | 0.00 | 0.00 | 0.00 | 86 | 1008.1 |
| 20260506035010 | 23 | 212 | 3.2 | 14.5 | 0.00 | 0.00 | 0.00 | 86 | 1008.0 |
| 20260506034504 | 23 | 124 | 3.2 | 9.7 | 0.00 | 0.00 | 0.00 | 86 | 1007.9 |
| 20260506034004 | 23 | 130 | 1.6 | 9.7 | 0.00 | 0.00 | 0.00 | 86 | 1007.7 |
| 20260506033503 | 23 | 162 | 1.6 | 8.0 | 0.00 | 0.00 | 0.00 | 85 | 1007.9 |
| 20260506033004 | 23 | 155 | 1.6 | 8.0 | 0.00 | 0.00 | 0.00 | 85 | 1007.8 |
| 20260506032503 | 23 | 154 | 1.6 | 6.4 | 0.00 | 0.00 | 0.00 | 85 | 1007.9 |
| 20260506032005 | 23 | 169 | 1.6 | 6.4 | 0.00 | 0.00 | 0.00 | 85 | 1007.7 |
| 20260506031506 | 23 | 171 | 1.6 | 4.8 | 0.00 | 0.00 | 0.00 | 85 | 1007.7 |
| 20260506031006 | 23 | 171 | 0.0 | 3.2 | 0.00 | 0.00 | 0.00 | 84 | 1007.6 |
| 20260506030502 | 23 | 171 | 1.6 | 4.8 | 0.00 | 0.00 | 0.00 | 84 | 1007.5 |
| 20260506030006 | 23 | 172 | 0.0 | 4.8 | 0.00 | 0.00 | 0.00 | 84 | 1007.4 |
| 20260506025508 | 24 | 172 | 0.0 | 4.8 | 0.00 | 0.00 | 0.00 | 83 | 1007.4 |
| 20260506025004 | 24 | 172 | 0.0 | 6.4 | 0.00 | 0.00 | 0.00 | 83 | 1007.3 |
| 20260506024515 | 24 | 172 | 0.0 | 8.0 | 0.00 | 0.00 | 0.00 | 83 | 1007.2 |
| 20260506024011 | 24 | 174 | 0.0 | 8.0 | 0.00 | 0.00 | 0.00 | 83 | 1007.1 |
| 20260506023504 | 24 | 173 | 0.0 | 4.8 | 0.00 | 0.00 | 0.00 | 82 | 1007.0 |
| 20260506023012 | 24 | 169 | 0.0 | 8.0 | 0.00 | 0.00 | 0.00 | 82 | 1006.9 |
| 20260506022503 | 25 | 169 | 0.0 | 8.0 | 0.00 | 0.00 | 0.00 | 82 | 1006.9 |
| 20260506022004 | 25 | 148 | 1.6 | 6.4 | 0.00 | 0.00 | 0.00 | 82 | 1006.8 |
| 20260506021503 | 25 | 156 | 0.0 | 9.7 | 0.00 | 0.00 | 0.00 | 81 | 1006.8 |
| 20260506021009 | 25 | 157 | 1.6 | 9.7 | 0.00 | 0.00 | 0.00 | 81 | 1006.7 |
| 20260506020510 | 25 | 141 | 0.0 | 4.8 | 0.00 | 0.00 | 0.00 | 81 | 1006.6 |
| 20260506020006 | 25 | 143 | 1.6 | 4.8 | 0.00 | 0.00 | 0.00 | 81 | 1006.6 |
| 20260506015503 | 25 | 144 | 1.6 | 4.8 | 0.00 | 0.00 | 0.00 | 81 | 1006.7 |
| 20260506015003 | 25 | 144 | 0.0 | 6.4 | 0.00 | 0.00 | 0.00 | 81 | 1006.6 |
| 20260506014514 | 25 | 144 | 1.6 | 6.4 | 0.00 | 0.00 | 0.00 | 80 | 1006.4 |
| 20260506014007 | 25 | 179 | 0.0 | 6.4 | 0.00 | 0.00 | 0.00 | 80 | 1006.3 |
| 20260506013503 | 25 | 146 | 0.0 | 6.4 | 0.00 | 0.00 | 0.00 | 79 | 1006.3 |
| 20260506013014 | 25 | 136 | 1.6 | 6.4 | 0.00 | 0.00 | 0.00 | 79 | 1006.3 |
| 20260506012507 | 25 | 155 | 1.6 | 6.4 | 0.00 | 0.00 | 0.00 | 78 | 1006.2 |
| 20260506012008 | 25 | 156 | 1.6 | 6.4 | 0.00 | 0.00 | 0.00 | 78 | 1006.3 |
| 20260506011531 | 25 | 158 | 1.6 | 8.0 | 0.00 | 0.00 | 0.00 | 77 | 1006.2 |
| 20260506011005 | 25 | 191 | 1.6 | 8.0 | 0.00 | 0.00 | 0.00 | 77 | 1006.1 |
| 20260506010502 | 26 | 140 | 0.0 | 9.7 | 0.00 | 0.00 | 0.00 | 76 | 1006.1 |
| 20260506010007 | 26 | 140 | 3.2 | 9.7 | 0.00 | 0.00 | 0.00 | 76 | 1006.1 |
| 20260506005503 | 26 | 143 | 1.6 | 8.0 | 0.00 | 0.00 | 0.00 | 76 | 1006.1 |
| 20260506005007 | 26 | 139 | 1.6 | 8.0 | 0.00 | 0.00 | 0.00 | 75 | 1006.1 |
| 20260506004516 | 26 | 141 | 1.6 | 8.0 | 0.00 | 0.00 | 0.00 | 75 | 1006.1 |
| 20260506004007 | 26 | 152 | 1.6 | 6.4 | 0.00 | 0.00 | 0.00 | 75 | 1006.2 |
| 20260506003505 | 26 | 154 | 1.6 | 9.7 | 0.00 | 0.00 | 0.00 | 75 | 1006.3 |
| 20260506003012 | 26 | 156 | 3.2 | 9.7 | 0.00 | 0.00 | 0.00 | 74 | 1006.3 |
| 20260506002507 | 26 | 157 | 3.2 | 9.7 | 0.00 | 0.00 | 0.00 | 74 | 1006.4 |
| 20260506002005 | 26 | 124 | 1.6 | 8.0 | 0.00 | 0.00 | 0.00 | 75 | 1006.4 |
| 20260506001514 | 27 | 176 | 3.2 | 8.0 | 0.00 | 0.00 | 0.00 | 74 | 1006.4 |
| 20260506001008 | 27 | 134 | 3.2 | 8.0 | 0.00 | 0.00 | 0.00 | 74 | 1006.3 |
| 20260506000505 | 27 | 147 | 0.0 | 8.0 | 0.00 | 0.00 | 0.00 | 74 | 1006.3 |
| 20260506000020 | 27 | 148 | 3.2 | 9.7 | 0.00 | 0.00 | 0.00 | 72 | 1006.4 |
| 20260505235502 | 27 | 158 | 0.0 | 9.7 | 0.00 | 0.00 | 0.00 | 73 | 1006.4 |
| 20260505235003 | 27 | 168 | 1.6 | 8.0 | 0.00 | 0.00 | 0.00 | 73 | 1006.4 |
| 20260505234509 | 27 | 181 | 1.6 | 8.0 | 0.00 | 0.00 | 0.00 | 72 | 1006.5 |
| 20260505234007 | 27 | 159 | 1.6 | 8.0 | 0.00 | 0.00 | 0.00 | 72 | 1006.4 |
| 20260505233504 | 27 | 102 | 1.6 | 11.3 | 0.00 | 0.00 | 0.00 | 71 | 1006.4 |
| 20260505233022 | 27 | 117 | 3.2 | 11.3 | 0.00 | 0.00 | 0.00 | 71 | 1006.4 |
| 20260505232505 | 27 | 201 | 3.2 | 9.7 | 0.00 | 0.00 | 0.00 | 71 | 1006.3 |
| 20260505232010 | 27 | 163 | 3.2 | 11.3 | 0.00 | 0.00 | 0.00 | 71 | 1006.2 |
| 20260505231516 | 27 | 186 | 3.2 | 11.3 | 0.00 | 0.00 | 0.00 | 71 | 1006.1 |
| 20260505231004 | 27 | 176 | 3.2 | 14.5 | 0.00 | 0.00 | 0.00 | 71 | 1006.1 |
| 20260505230505 | 27 | 128 | 3.2 | 14.5 | 0.00 | 0.00 | 0.00 | 71 | 1006.0 |
| 20260505230021 | 27 | 138 | 3.2 | 12.9 | 0.00 | 0.00 | 0.00 | 71 | 1006.1 |
| 20260505225507 | 27 | 167 | 3.2 | 12.9 | 0.00 | 0.00 | 0.00 | 71 | 1006.0 |
| 20260505225007 | 27 | 145 | 3.2 | 11.3 | 0.00 | 0.00 | 0.00 | 70 | 1005.9 |
| 20260505224524 | 27 | 86 | 3.2 | 11.3 | 0.00 | 0.00 | 0.00 | 71 | 1005.9 |
| 20260505224002 | 27 | 172 | 1.6 | 11.3 | 0.00 | 0.00 | 0.00 | 72 | 1006.0 |
| 20260505223505 | 27 | 93 | 4.8 | 11.3 | 0.00 | 0.00 | 0.00 | 71 | 1006.1 |
| 20260505223016 | 27 | 150 | 4.8 | 12.9 | 0.00 | 0.00 | 0.00 | 71 | 1006.1 |
| 20260505222503 | 27 | 90 | 3.2 | 12.9 | 0.00 | 0.00 | 0.00 | 71 | 1006.0 |
| 20260505222012 | 27 | 175 | 3.2 | 17.7 | 0.00 | 0.00 | 0.00 | 72 | 1006.0 |
| 20260505221510 | 27 | 203 | 4.8 | 17.7 | 0.00 | 0.00 | 0.00 | 71 | 1005.9 |
| 20260505221006 | 27 | 147 | 4.8 | 17.7 | 0.00 | 0.00 | 0.00 | 71 | 1005.9 |
| 20260505220507 | 27 | 224 | 3.2 | 16.1 | 0.00 | 0.00 | 0.00 | 71 | 1006.0 |
| 20260505220036 | 27 | 171 | 3.2 | 20.9 | 0.00 | 0.00 | 0.00 | 70 | 1006.0 |
| 20260505215510 | 28 | 185 | 4.8 | 20.9 | 0.00 | 0.00 | 0.00 | 70 | 1006.1 |
| 20260505215005 | 28 | 141 | 4.8 | 16.1 | 0.00 | 0.00 | 0.00 | 69 | 1006.1 |
| 20260505214528 | 28 | 213 | 3.2 | 16.1 | 0.00 | 0.00 | 0.00 | 71 | 1006.1 |
| 20260505214007 | 28 | 217 | 6.4 | 16.1 | 0.00 | 0.00 | 0.00 | 69 | 1006.1 |
| 20260505213508 | 28 | 127 | 4.8 | 12.9 | 0.00 | 0.00 | 0.00 | 69 | 1006.1 |
| 20260505213029 | 28 | 113 | 3.2 | 12.9 | 0.00 | 0.00 | 0.00 | 69 | 1006.2 |
| 20260505212505 | 28 | 170 | 3.2 | 14.5 | 0.00 | 0.00 | 0.00 | 70 | 1006.4 |
| 20260505212004 | 28 | 148 | 3.2 | 14.5 | 0.00 | 0.00 | 0.00 | 69 | 1006.5 |
| 20260505211508 | 28 | 175 | 3.2 | 12.9 | 0.00 | 0.00 | 0.00 | 70 | 1006.5 |
| 20260505211007 | 28 | 106 | 4.8 | 12.9 | 0.00 | 0.00 | 0.00 | 70 | 1006.6 |
| 20260505210503 | 28 | 86 | 4.8 | 12.9 | 0.00 | 0.00 | 0.00 | 69 | 1006.7 |
| 20260505210017 | 28 | 187 | 3.2 | 14.5 | 0.00 | 0.00 | 0.00 | 68 | 1006.8 |
| 20260505205513 | 28 | 181 | 3.2 | 14.5 | 0.00 | 0.00 | 0.00 | 70 | 1006.7 |
| 20260505205009 | 28 | 163 | 3.2 | 14.5 | 0.00 | 0.00 | 0.00 | 69 | 1006.8 |
| 20260505204519 | 28 | 148 | 3.2 | 14.5 | 0.00 | 0.00 | 0.00 | 70 | 1006.9 |
| 20260505204008 | 28 | 129 | 4.8 | 14.5 | 0.00 | 0.00 | 0.00 | 70 | 1006.9 |
| 20260505203511 | 28 | 59 | 4.8 | 16.1 | 0.00 | 0.00 | 0.00 | 70 | 1006.8 |
| 20260505203012 | 28 | 200 | 3.2 | 16.1 | 0.00 | 0.00 | 0.00 | 70 | 1007.1 |
| 20260505202509 | 28 | 100 | 6.4 | 16.1 | 0.00 | 0.00 | 0.00 | 68 | 1007.0 |
| 20260505202008 | 29 | 148 | 3.2 | 12.9 | 0.00 | 0.00 | 0.00 | 67 | 1007.2 |
| 20260505201512 | 29 | 193 | 3.2 | 12.9 | 0.00 | 0.00 | 0.00 | 66 | 1007.3 |
| 20260505201007 | 28 | 171 | 3.2 | 14.5 | 0.00 | 0.00 | 0.00 | 67 | 1007.3 |
| 20260505200507 | 28 | 167 | 4.8 | 17.7 | 0.00 | 0.00 | 0.00 | 67 | 1007.4 |
| 20260505200012 | 28 | 168 | 4.8 | 17.7 | 0.00 | 0.00 | 0.00 | 68 | 1007.5 |
| 20260505195509 | 28 | 202 | 6.4 | 17.7 | 0.00 | 0.00 | 0.00 | 67 | 1007.4 |
| 20260505195004 | 28 | 138 | 6.4 | 17.7 | 0.00 | 0.00 | 0.00 | 68 | 1007.4 |
| 20260505194519 | 28 | 210 | 4.8 | 14.5 | 0.00 | 0.00 | 0.00 | 69 | 1007.6 |
| 20260505194012 | 28 | 148 | 4.8 | 12.9 | 0.00 | 0.00 | 0.00 | 68 | 1007.6 |
| 20260505193509 | 28 | 166 | 4.8 | 17.7 | 0.00 | 0.00 | 0.00 | 70 | 1007.7 |
| 20260505193020 | 28 | 214 | 6.4 | 17.7 | 0.00 | 0.00 | 0.00 | 70 | 1007.6 |
| 20260505192509 | 28 | 207 | 6.4 | 17.7 | 0.00 | 0.00 | 0.00 | 68 | 1007.7 |
| 20260505192010 | 27 | 160 | 4.8 | 19.3 | 0.00 | 0.00 | 0.00 | 69 | 1007.7 |
| 20260505191517 | 27 | 167 | 3.2 | 22.5 | 0.00 | 0.00 | 0.00 | 69 | 1007.7 |
| 20260505191009 | 27 | 215 | 4.8 | 22.5 | 0.00 | 0.00 | 0.00 | 69 | 1007.7 |
| 20260505190512 | 28 | 187 | 4.8 | 17.7 | 0.00 | 0.00 | 0.00 | 69 | 1007.8 |
| 20260505190015 | 27 | 184 | 4.8 | 17.7 | 0.00 | 0.00 | 0.00 | 72 | 1007.9 |
| 20260505185510 | 27 | 133 | 4.8 | 19.3 | 0.00 | 0.00 | 0.00 | 70 | 1007.9 |
| 20260505185007 | 27 | 152 | 4.8 | 19.3 | 0.00 | 0.00 | 0.00 | 70 | 1008.0 |
| 20260505184514 | 27 | 195 | 4.8 | 17.7 | 0.00 | 0.00 | 0.00 | 71 | 1008.0 |
| 20260505184008 | 27 | 167 | 3.2 | 19.3 | 0.00 | 0.00 | 0.00 | 75 | 1008.1 |
| 20260505183508 | 27 | 219 | 4.8 | 19.3 | 0.00 | 0.00 | 0.00 | 74 | 1008.3 |
| 20260505183019 | 27 | 169 | 4.8 | 17.7 | 0.00 | 0.00 | 0.00 | 71 | 1008.4 |
| 20260505182508 | 27 | 197 | 4.8 | 17.7 | 0.00 | 0.00 | 0.00 | 72 | 1008.6 |
| 20260505182011 | 27 | 155 | 3.2 | 20.9 | 0.00 | 0.00 | 0.00 | 72 | 1008.6 |
| 20260505181515 | 27 | 245 | 4.8 | 24.1 | 0.00 | 0.00 | 0.00 | 72 | 1008.7 |
| 20260505181014 | 26 | 166 | 4.8 | 24.1 | 0.00 | 0.00 | 0.00 | 73 | 1008.7 |
| 20260505180507 | 26 | 222 | 6.4 | 16.1 | 0.00 | 0.00 | 0.00 | 73 | 1008.6 |
| 20260505180024 | 26 | 128 | 4.8 | 20.9 | 0.00 | 0.00 | 0.00 | 76 | 1008.6 |
| 20260505175510 | 25 | 171 | 6.4 | 20.9 | 0.00 | 0.00 | 0.00 | 75 | 1008.7 |
| 20260505175010 | 25 | 109 | 8.0 | 20.9 | 0.00 | 0.00 | 0.00 | 76 | 1008.9 |
| 20260505174520 | 25 | 176 | 1.6 | 19.3 | 0.00 | 0.00 | 0.00 | 78 | 1008.9 |
| 20260505174010 | 24 | 210 | 8.0 | 19.3 | 0.00 | 0.00 | 0.00 | 78 | 1008.9 |
| 20260505173511 | 25 | 217 | 4.8 | 22.5 | 0.00 | 0.00 | 0.00 | 78 | 1009.0 |
| 20260505173017 | 25 | 154 | 3.2 | 22.5 | 0.00 | 0.00 | 0.00 | 80 | 1008.9 |
| 20260505172512 | 24 | 236 | 4.8 | 19.3 | 0.00 | 0.00 | 0.00 | 79 | 1008.9 |
| 20260505172007 | 24 | 198 | 6.4 | 17.7 | 0.00 | 0.00 | 0.00 | 79 | 1008.8 |
| 20260505171522 | 24 | 167 | 3.2 | 17.7 | 0.00 | 0.00 | 0.00 | 80 | 1008.9 |
| 20260505171009 | 24 | 181 | 8.0 | 17.7 | 0.00 | 0.00 | 0.00 | 80 | 1008.9 |
| 20260505170507 | 24 | 224 | 6.4 | 16.1 | 0.00 | 0.00 | 0.00 | 81 | 1008.9 |
| 20260505170026 | 23 | 192 | 3.2 | 16.1 | 0.00 | 0.00 | 0.00 | 82 | 1009.0 |
| 20260505165508 | 23 | 172 | 4.8 | 19.3 | 0.00 | 0.00 | 0.00 | 83 | 1009.0 |
| 20260505165005 | 23 | 161 | 8.0 | 19.3 | 0.00 | 0.00 | 0.00 | 82 | 1008.9 |
| 20260505164524 | 23 | 164 | 6.4 | 14.5 | 0.00 | 0.00 | 0.00 | 83 | 1008.9 |
| 20260505164011 | 23 | 220 | 3.2 | 12.9 | 0.00 | 0.00 | 0.00 | 83 | 1008.9 |
| 20260505163508 | 23 | 195 | 4.8 | 12.9 | 0.00 | 0.00 | 0.00 | 83 | 1009.0 |
| 20260505163022 | 23 | 168 | 3.2 | 12.9 | 0.00 | 0.00 | 0.00 | 83 | 1009.0 |
| 20260505162507 | 22 | 197 | 4.8 | 12.9 | 0.00 | 0.00 | 0.00 | 84 | 1009.0 |
| 20260505162011 | 22 | 181 | 4.8 | 11.3 | 0.00 | 0.00 | 0.00 | 84 | 1009.1 |
| 20260505161518 | 22 | 188 | 4.8 | 17.7 | 0.00 | 0.00 | 0.00 | 84 | 1009.0 |
| 20260505161010 | 22 | 184 | 4.8 | 20.9 | 0.00 | 0.00 | 0.00 | 84 | 1009.0 |
| 20260505160508 | 22 | 202 | 3.2 | 20.9 | 0.00 | 0.00 | 0.00 | 84 | 1008.9 |
| 20260505153025 | 22 | 186 | 4.8 | 17.7 | 0.00 | 0.00 | 0.00 | 86 | 1009.0 |
| 20260505152512 | 21 | 178 | 4.8 | 17.7 | 0.00 | 0.00 | 0.00 | 86 | 1009.0 |
| 20260505152010 | 21 | 175 | 3.2 | 17.7 | 0.00 | 0.00 | 0.00 | 87 | 1009.0 |
| 20260505151528 | 21 | 212 | 4.8 | 14.5 | 0.00 | 0.00 | 0.00 | 87 | 1009.1 |
| 20260505151011 | 21 | 199 | 4.8 | 16.1 | 0.00 | 0.00 | 0.00 | 87 | 1009.0 |
| 20260505150513 | 21 | 105 | 3.2 | 16.1 | 0.00 | 0.00 | 0.00 | 87 | 1008.9 |
| 20260505140509 | 21 | 185 | 6.4 | 16.1 | 0.00 | 0.00 | 0.00 | 87 | 1008.3 |
| 20260505125013 | 21 | 200 | 3.2 | 14.5 | 0.00 | 0.00 | 0.00 | 88 | 1007.8 |
| 20260505124539 | 21 | 184 | 3.2 | 14.5 | 0.00 | 0.00 | 0.00 | 88 | 1007.8 |
| 20260505124013 | 21 | 209 | 4.8 | 16.1 | 0.00 | 0.00 | 0.00 | 88 | 1007.7 |
| 20260505123511 | 20 | 210 | 4.8 | 17.7 | 0.00 | 0.00 | 0.00 | 88 | 1007.5 |
| 20260505123024 | 20 | 153 | 6.4 | 20.9 | 0.00 | 0.00 | 0.00 | 88 | 1007.5 |
| 20260505122512 | 20 | 182 | 1.6 | 20.9 | 0.00 | 0.00 | 0.00 | 88 | 1007.3 |
| 20260505122015 | 20 | 153 | 4.8 | 11.3 | 0.00 | 0.00 | 0.00 | 88 | 1007.2 |
| 20260505121506 | 20 | 179 | 3.2 | 14.5 | 0.00 | 0.00 | 0.00 | 88 | 1007.1 |
| 20260505121006 | 20 | 176 | 3.2 | 14.5 | 0.00 | 0.00 | 0.00 | 88 | 1007.1 |
| 20260505120506 | 20 | 188 | 3.2 | 14.5 | 0.00 | 0.00 | 0.00 | 88 | 1007.1 |
| 20260505120012 | 20 | 191 | 4.8 | 14.5 | 0.00 | 0.00 | 0.00 | 88 | 1007.0 |
| 20260505115506 | 20 | 184 | 3.2 | 8.0 | 0.00 | 0.00 | 0.00 | 88 | 1007.0 |
| 20260505115009 | 20 | 146 | 1.6 | 8.0 | 0.00 | 0.00 | 0.00 | 88 | 1006.9 |
| 20260505114511 | 20 | 162 | 1.6 | 16.1 | 0.00 | 0.00 | 0.00 | 87 | 1006.8 |
| 20260505114007 | 20 | 171 | 1.6 | 16.1 | 0.00 | 0.00 | 0.00 | 87 | 1006.8 |
| 20260505113507 | 20 | 234 | 3.2 | 17.7 | 0.00 | 0.00 | 0.00 | 87 | 1006.8 |
| 20260505113010 | 20 | 163 | 3.2 | 17.7 | 0.00 | 0.00 | 0.00 | 87 | 1006.9 |
| 20260505112507 | 21 | 172 | 3.2 | 11.3 | 0.00 | 0.00 | 0.00 | 87 | 1006.9 |
| 20260505112007 | 20 | 198 | 3.2 | 27.4 | 0.00 | 0.00 | 0.00 | 87 | 1006.8 |
| 20260505111512 | 20 | 198 | 8.0 | 27.4 | 0.00 | 0.00 | 0.00 | 87 | 1006.7 |
| 20260505111006 | 21 | 146 | 4.8 | 16.1 | 0.00 | 0.00 | 0.00 | 87 | 1006.7 |
| 20260505110509 | 21 | 169 | 3.2 | 16.1 | 0.00 | 0.00 | 0.00 | 86 | 1006.7 |
| 20260505102008 | 20 | 210 | 3.2 | 17.7 | 0.00 | 0.00 | 0.00 | 86 | 1007.1 |
| 20260505101512 | 20 | 242 | 3.2 | 17.7 | 0.00 | 0.00 | 0.00 | 86 | 1007.1 |
| 20260505101004 | 20 | 189 | 4.8 | 17.7 | 0.00 | 0.00 | 0.00 | 86 | 1007.1 |
| 20260505100507 | 20 | 176 | 3.2 | 19.3 | 0.00 | 0.00 | 0.00 | 86 | 1007.0 |
| 20260505100020 | 20 | 179 | 4.8 | 19.3 | 0.00 | 0.00 | 0.00 | 86 | 1007.4 |
| 20260505095507 | 20 | 185 | 1.6 | 11.3 | 0.00 | 0.00 | 0.00 | 86 | 1007.4 |
| 20260505095007 | 20 | 179 | 3.2 | 11.3 | 0.00 | 0.00 | 0.00 | 86 | 1007.3 |
| 20260505094513 | 21 | 176 | 3.2 | 11.3 | 0.00 | 0.00 | 0.00 | 86 | 1007.2 |
| 20260505094008 | 21 | 131 | 1.6 | 14.5 | 0.00 | 0.00 | 0.00 | 86 | 1007.3 |
| 20260505093505 | 20 | 182 | 3.2 | 14.5 | 0.00 | 0.00 | 0.00 | 86 | 1007.3 |
| 20260505093016 | 21 | 123 | 4.8 | 14.5 | 0.00 | 0.00 | 0.00 | 86 | 1007.4 |
| 20260505092514 | 21 | 179 | 4.8 | 14.5 | 0.00 | 0.00 | 0.00 | 86 | 1007.4 |
| 20260505092009 | 21 | 206 | 4.8 | 12.9 | 0.00 | 0.00 | 0.00 | 86 | 1007.4 |
| 20260505091507 | 21 | 184 | 4.8 | 11.3 | 0.00 | 0.00 | 0.00 | 86 | 1007.4 |
| 20260505091004 | 21 | 169 | 1.6 | 11.3 | 0.00 | 0.00 | 0.00 | 86 | 1007.5 |
| 20260505090504 | 21 | 112 | 3.2 | 12.9 | 0.00 | 0.00 | 0.00 | 86 | 1007.5 |
| 20260505090007 | 21 | 189 | 4.8 | 19.3 | 0.00 | 0.00 | 0.00 | 85 | 1007.5 |
| 20260505085504 | 21 | 197 | 3.2 | 19.3 | 0.00 | 0.00 | 0.00 | 86 | 1007.4 |
| 20260505085004 | 21 | 172 | 6.4 | 17.7 | 0.00 | 0.00 | 0.00 | 85 | 1007.6 |
| 20260505084527 | 21 | 215 | 4.8 | 22.5 | 0.00 | 0.00 | 0.00 | 85 | 1007.7 |
| 20260505084002 | 21 | 190 | 6.4 | 22.5 | 0.00 | 0.00 | 0.00 | 85 | 1007.7 |
| 20260505083503 | 21 | 179 | 4.8 | 14.5 | 0.00 | 0.00 | 0.00 | 85 | 1007.7 |
| 20260505083010 | 21 | 153 | 3.2 | 14.5 | 0.00 | 0.00 | 0.00 | 85 | 1007.6 |
| 20260505082506 | 21 | 189 | 4.8 | 16.1 | 0.00 | 0.00 | 0.00 | 85 | 1007.8 |
| 20260505082006 | 21 | 117 | 4.8 | 16.1 | 0.00 | 0.00 | 0.00 | 85 | 1007.9 |
| 20260505081516 | 21 | 234 | 3.2 | 16.1 | 0.00 | 0.00 | 0.00 | 85 | 1008.0 |
| 20260505081007 | 21 | 195 | 6.4 | 17.7 | 0.00 | 0.00 | 0.00 | 85 | 1008.1 |
| 20260505080506 | 21 | 182 | 3.2 | 22.5 | 0.00 | 0.00 | 0.00 | 85 | 1008.0 |
| 20260505080009 | 21 | 158 | 4.8 | 22.5 | 0.00 | 0.00 | 0.00 | 85 | 1008.0 |
| 20260505075504 | 21 | 184 | 4.8 | 24.1 | 0.00 | 0.00 | 0.00 | 85 | 1007.9 |
| 20260505075004 | 21 | 148 | 6.4 | 24.1 | 0.00 | 0.00 | 0.00 | 85 | 1008.0 |
| 20260505074512 | 21 | 168 | 6.4 | 19.3 | 0.00 | 0.00 | 0.00 | 85 | 1008.0 |
| 20260505074004 | 21 | 146 | 4.8 | 19.3 | 0.00 | 0.00 | 0.00 | 85 | 1008.1 |
| 20260505073504 | 21 | 172 | 3.2 | 17.7 | 0.00 | 0.00 | 0.00 | 85 | 1008.1 |
| 20260505073012 | 21 | 177 | 6.4 | 17.7 | 0.00 | 0.00 | 0.00 | 85 | 1008.2 |
| 20260505072503 | 21 | 101 | 3.2 | 16.1 | 0.00 | 0.00 | 0.00 | 85 | 1008.2 |
| 20260505072010 | 21 | 161 | 4.8 | 16.1 | 0.00 | 0.00 | 0.00 | 85 | 1008.3 |
| 20260505071510 | 21 | 202 | 1.6 | 22.5 | 0.00 | 0.00 | 0.00 | 84 | 1008.4 |
| 20260505071007 | 21 | 152 | 6.4 | 22.5 | 0.00 | 0.00 | 0.00 | 84 | 1008.6 |
| 20260505070504 | 21 | 184 | 6.4 | 17.7 | 0.00 | 0.00 | 0.00 | 84 | 1008.7 |
| 20260505070013 | 21 | 213 | 3.2 | 19.3 | 0.00 | 0.00 | 0.00 | 84 | 1008.7 |
| 20260505065514 | 21 | 175 | 6.4 | 19.3 | 0.00 | 0.00 | 0.00 | 84 | 1008.7 |
| 20260505065006 | 21 | 212 | 8.0 | 17.7 | 0.00 | 0.00 | 0.00 | 84 | 1008.8 |
| 20260505064511 | 21 | 215 | 8.0 | 17.7 | 0.00 | 0.00 | 0.00 | 84 | 1008.8 |
| 20260505064014 | 21 | 226 | 3.2 | 17.7 | 0.00 | 0.00 | 0.00 | 84 | 1008.8 |
| 20260505063505 | 21 | 210 | 6.4 | 17.7 | 0.00 | 0.00 | 0.00 | 84 | 1008.8 |
| 20260505063014 | 21 | 124 | 4.8 | 16.1 | 0.00 | 0.00 | 0.00 | 84 | 1009.0 |
| 20260505062505 | 21 | 188 | 3.2 | 17.7 | 0.00 | 0.00 | 0.00 | 84 | 1009.0 |
| 20260505062007 | 21 | 210 | 3.2 | 17.7 | 0.00 | 0.00 | 0.00 | 83 | 1009.0 |
| 20260505061519 | 21 | 219 | 4.8 | 16.1 | 0.00 | 0.00 | 0.00 | 83 | 1009.0 |
| 20260505061007 | 21 | 177 | 3.2 | 12.9 | 0.00 | 0.00 | 0.00 | 83 | 1009.1 |
| 20260505060510 | 21 | 132 | 3.2 | 25.7 | 0.00 | 0.00 | 0.00 | 83 | 1009.2 |
| 20260505060014 | 21 | 223 | 8.0 | 25.7 | 0.00 | 0.00 | 0.00 | 83 | 1009.1 |
| 20260505055507 | 21 | 179 | 3.2 | 22.5 | 0.00 | 0.00 | 0.00 | 83 | 1009.1 |
| 20260505055007 | 21 | 164 | 6.4 | 22.5 | 0.00 | 0.00 | 0.00 | 83 | 1009.0 |
| 20260505054513 | 21 | 188 | 4.8 | 19.3 | 0.00 | 0.00 | 0.00 | 83 | 1009.2 |
| 20260505054011 | 21 | 210 | 4.8 | 17.7 | 0.00 | 0.00 | 0.00 | 83 | 1009.1 |
| 20260505053508 | 21 | 112 | 6.4 | 17.7 | 0.00 | 0.00 | 0.00 | 83 | 1009.0 |
| 20260505053019 | 21 | 215 | 3.2 | 14.5 | 0.00 | 0.00 | 0.00 | 83 | 1009.0 |
| 20260505052507 | 21 | 184 | 4.8 | 20.9 | 0.00 | 0.00 | 0.00 | 83 | 1009.1 |
| 20260505052006 | 21 | 149 | 3.2 | 20.9 | 0.00 | 0.00 | 0.00 | 83 | 1008.9 |
| 20260505051517 | 21 | 117 | 6.4 | 16.1 | 0.00 | 0.00 | 0.00 | 83 | 1009.2 |
| 20260505051004 | 21 | 170 | 4.8 | 16.1 | 0.00 | 0.00 | 0.00 | 83 | 1009.0 |
| 20260505050508 | 21 | 191 | 4.8 | 14.5 | 0.00 | 0.00 | 0.00 | 83 | 1009.0 |